Skip Page Navigation
NASA JPL Caltech
NASA Logo - Jet Propulsion Laboratory + View the NASA Portal
+ Near-Earth Object (NEO) Program
Search JPL
JPL Home Earth Solar System Stars & Galaxies Technology
JPL Solar System Dynamics
BODIES ORBITS EPHEMERIDES TOOLS PHYSICAL DATA DISCOVERY FAQ SITE MAP
JPL Small-Body Database Browser
Search: [ help ]  
7124 Glinos (1990 OJ4)
Classification: Main-belt Asteroid          SPK-ID: 2007124
Ephemeris | Orbit Diagram | Orbital Elements | Physical Parameters | Discovery Circumstances ]

[ hide orbit diagram ]
Orbit Diagram
Note: Make sure you have Java enabled on your browser to see the applet. This applet is provided as a 3D orbit visualization tool. The applet was implemented using 2-body methods, and hence should not be used for determining accurate long-term trajectories (over several years or decades) or planetary encounter circumstances. For accurate long-term ephemerides, please instead use our Horizons system.
Orbit Viewer

Additional Notes: the orbits shown in the applet are color coded. The planets are white lines, and the asteroid/comet is a blue line. The bright white line indicates the portion of the orbit that is above the ecliptic plane, and the darker portion is below the ecliptic plane. Likewise for the asteroid/comet orbit, the light blue indicates the portion above the ecliptic plane, and the dark blue the portion below the ecliptic plane.

Orbit Viewer applet originally written and kindly provided by Osamu Ajiki (AstroArts), and further modified by Ron Baalke (JPL).


Orbital Elements at Epoch 2456400.5 (2013-Apr-18.0) TDB
Reference: MPO233557 (heliocentric ecliptic J2000)
 Element Value Uncertainty (1-sigma)   Units 
e 0.0369454 n/a  
a 3.1383384 n/a AU
q 3.0223912 n/a AU
i 17.94199 n/a deg
node 273.80121 n/a deg
peri 63.74648 n/a deg
M 0.62216 n/a deg
tp 2456396.9904803
(2013-Apr-14.49048030)
n/a JED
period 2030.7108921
5.56
n/a
n/a
d
yr
n 0.17727782 n/a deg/d
Q 3.2542856 n/a AU
  Orbit Determination Parameters
   # obs. used (total)      707  
   first obs. used      1984-??-??  
   last obs. used      2012-06-27  
   # oppositions      19  
   planetary ephem.      DE403  
   condition code      0  
   fit RMS      0.55  
   data source      MPC:mpn  
   producer      MPCLINUX  

Additional Information
 T_jup = 3.135 

Ephemeris | Orbit Diagram | Orbital Elements | Physical Parameters | Discovery Circumstances ]

Physical Parameter Table
Parameter Symbol Value Units Sigma Reference Notes
absolute magnitude H 11.0 mag n/a PDS3 (MPC 27702)  

7124 Glinos           Discovered 1990 July 24 by H. E. Holt at Palomar.
Canadian amateur astronomer Tom Glinos (b. 1960) has contributed observations in several fields for almost a quarter of a century. He recently donated a high-quality equatorial telescope mount to the London Centre of the Royal Astronomical Society of Canada, a group with which he has been long active.
NOTE: some special characters may not display properly (any characters within {} are an attempt to place the proper accent above a character)
Reference: 20010309/MPCPages.arcLast Updated: 2009-05-11

Alternate Designations
 1990 OJ4 = 1984 MO = 1993 AC 
Ephemeris | Orbit Diagram | Orbital Elements | Physical Parameters | Discovery Circumstances ]
ABOUT SSD CREDITS/AWARDS PRIVACY/COPYRIGHT GLOSSARY LINKS
FirstGov 2013-May-21 04:27 UT
(server date/time)  
NASA Home Page
Site Manager:   Donald K. Yeomans
Webmaster  Alan B. Chamberlin